Weather in Sayany

Russia / Republic of Buryatia     52°41′18″N   99°40′34″E
temp.,
°C
wind,
m/s
gust,
m/s
humid.,
%
clouds,
%
prec.,
mm/h
press.,
hPa
HPBL,
m
8 may, sat
sat823:00+2wsw2291100 0.1 100919
02:00+2wsw2297100 1.5 100828
05:00+2wsw2298100 1.7 100930
08:00+2nnw129797 4.8 1011115
11:00+3sw0195100 1.3 1011397
14:00+3wsw129293 3.6 1011323
17:00+6w376160 0.4 10091457
20:00+3wnw227464 0.6 101132
9 may, sun
sun923:00−1w228632 0.1 101422
02:00−1w228610 0.1 101519
05:00−2wsw2286100 0.0 101420
08:00+1ssw367393 0.0 1011467
11:00+5w6125758 0.1 10071805
14:00+6wnw6135015 0.2 10061647
17:00+2wnw2379100 0.8 1009485
20:00+2nw2469100 1.4 1008550
10 may, mon
mon1023:00−1n1287100 1.0 101187
02:00−2nne229063 2.8 1012118
05:00−3nne3495100 3.1 1015353
08:00−3n2373100 4.2 1016640
11:00−1nnw3357100 0.1 10161420
14:00+1nnw345699 0.2 10161470
17:00+1n355755 0.1 10161397
20:000n337114 0.3 1019458
11 may, tue
tue1123:00−4n338816 0.0 102350
02:00−5nnw228817 0.0 102362
05:00−6n11844 0.0 102332
08:00−3s01683 0.0 1020296
11:00+1s11534 0.0 1017959
14:00+5sse02424 0.0 10141533
17:00+6e02353 0.0 10111844
20:00+4nw01502 0.0 1011376
12 may, wed
wed1223:000wnw11590 0.0 101311
02:00−2w006040 0.0 101310
05:00−2n00588 0.0 101210
08:00+1nne125137 0.0 1010302
11:00+5nne1347100 0.1 10071454
14:00+7nw353999 0.3 10042266
17:00+5nne3359100 0.6 10051214
20:00+1nne2393100 1.9 1009292